Voltar ao catálogo

ARIANE 5 DEB

LostHEO
NORAD 43383·DEBRIS·🇫🇷 France

Lançado Jun 12, 2008 de Guiana Space Centre

Loading…

Próximas Passagens (próximas 24 horas)

TLE

ObsoletoSource: Space-Track

Época: Dec 6, 2025, 15:42 UTC

1 43383U 08030F   25340.65430022 -.00003140  00000-0 -43534-1 0  9998
2 43383   2.1406  90.6803 6830138  95.0344 339.1700  2.63516387143503

Acompanhe ARIANE 5 DEB em tempo real com AllMySat

Download on the App Store